Location: Allonne
(49.4086°N, 2.1143°E)
Time: 08:54:37
(UTC+00:00)

Okean O Rocket - Visible Passes

Search period start: 01 October 2023 00:00
Search period end: 11 October 2023 00:00
Orbit: 621 x 640 km, 98.1° (Epoch: 30 September)

Date Brightness Start Highest point End Pass type
(mag) Time Alt. Az. Time Alt. Az. Time Alt. Az.
01 Oct 1.8 18:57:31 17° SE 19:00:47 52° ENE 19:05:08 10° N visible
01 Oct 4.0 20:34:55 13° SW 20:37:24 20° W 20:40:40 10° NW visible
02 Oct 1.5 19:18:32 23° SSE 19:21:19 82° ENE 19:25:47 10° NNW visible
02 Oct 4.5 20:56:14 10° WSW 20:58:13 13° W 21:00:13 10° WNW visible
03 Oct 3.1 18:03:02 10° ESE 18:06:04 18° ENE 18:09:06 10° NNE visible
03 Oct 2.0 19:39:33 26° S 19:41:55 64° WSW 19:46:22 10° NNW visible
04 Oct 2.7 18:23:10 12° ESE 18:26:26 26° ENE 18:30:09 10° N visible
04 Oct 2.8 20:00:34 26° SSW 20:02:34 40° W 20:06:48 10° NNW visible
05 Oct 2.1 18:44:10 19° SE 18:46:52 39° ENE 18:51:01 10° N visible
05 Oct 3.6 20:21:34 21° SW 20:23:17 26° W 20:27:03 10° NW visible
06 Oct 1.6 19:05:10 28° SE 19:07:21 60° ENE 19:11:46 10° N visible
06 Oct 4.1 20:42:35 15° WSW 20:44:04 17° W 20:47:02 10° NW visible
07 Oct 3.4 17:49:55 10° E 17:52:15 14° ENE 17:54:34 10° NNE visible
07 Oct 1.5 19:26:12 38° SSE 19:27:54 88° WSW 19:32:23 10° NNW visible
07 Oct 4.6 21:03:36 10° WSW 21:04:54 11° W 21:06:12 10° WNW visible
08 Oct 3.0 18:09:47 12° ESE 18:12:34 20° ENE 18:15:50 10° NNE visible
08 Oct 2.2 19:47:11 39° SSW 19:48:31 56° W 19:52:54 10° NNW visible
09 Oct 2.5 18:30:48 20° ESE 18:32:58 29° ENE 18:36:49 10° N visible
09 Oct 3.0 20:08:12 32° SW 20:09:10 36° W 20:13:17 10° NNW visible
10 Oct 2.0 18:51:47 31° ESE 18:53:24 44° ENE 18:57:38 10° N visible
10 Oct 3.7 20:29:12 22° WSW 20:29:53 23° W 20:33:29 10° NW visible
